Time,TemperatureF,DewpointF,PressureIn,WindDirection,WindDirectionDegrees,WindSpeedMPH,WindSpeedGustMPH,Humidity,HourlyPrecipIn,Conditions,Clouds,dailyrainin,SolarRadiationWatts/m^2,SoftwareType,DateUTC
2013-01-17 00:00:00,38.7,36.8,29.95,West,261,5.0,7.0,93,0.00,,,0.68,0.0,WUHU216DAVISVP2,2013-01-17 05:00:00,
2013-01-17 00:01:00,38.7,36.8,29.95,West,269,3.3,7.0,93,0.00,,,0.68,0.0,WUHU216DAVISVP2,2013-01-17 05:01:00,
2013-01-17 00:02:00,38.7,36.8,29.96,WSW,250,4.0,7.0,93,0.00,,,0.68,0.0,WUHU216DAVISVP2,2013-01-17 05:02:00,
2013-01-17 00:03:00,38.8,36.9,29.96,WSW,255,4.4,7.0,93,0.00,,,0.00,0.0,WUHU216DAVISVP2,2013-01-17 05:03:00,
2013-01-17 00:08:00,38.8,36.9,29.96,WNW,282,6.0,8.0,93,0.00,,,0.00,0.0,WUHU216DAVISVP2,2013-01-17 05:08:00,
2013-01-17 00:13:00,38.9,36.7,29.96,West,281,4.0,8.0,92,0.00,,,0.00,0.0,WUHU216DAVISVP2,2013-01-17 05:13:00,
2013-01-17 00:18:00,38.8,36.7,29.95,West,273,2.0,8.0,92,0.00,,,0.00,0.0,WUHU216DAVISVP2,2013-01-17 05:18:00,
2013-01-17 00:23:00,38.8,36.7,29.96,WSW,256,4.0,8.0,92,0.00,,,0.00,0.0,WUHU216DAVISVP2,2013-01-17 05:23:00,
2013-01-17 00:28:00,38.9,36.8,29.97,WSW,254,3.8,7.0,92,0.00,,,0.00,0.0,WUHU216DAVISVP2,2013-01-17 05:28:00,
2013-01-17 00:33:00,38.9,36.7,29.96,West,261,4.7,8.0,92,0.00,,,0.00,0.0,WUHU216DAVISVP2,2013-01-17 05:33:00,
2013-01-17 00:38:00,38.9,36.7,29.98,West,260,5.0,8.0,92,0.00,,,0.00,0.0,WUHU216DAVISVP2,2013-01-17 05:38:00,
2013-01-17 00:43:00,39.0,36.8,29.97,WSW,254,7.0,10.0,92,0.00,,,0.00,0.0,WUHU216DAVISVP2,2013-01-17 05:43:00,
2013-01-17 00:48:00,39.1,36.9,29.96,WSW,252,4.7,10.0,92,0.00,,,0.00,0.0,WUHU216DAVISVP2,2013-01-17 05:48:00,
2013-01-17 00:53:00,39.1,36.9,29.96,West,259,4.0,10.0,92,0.00,,,0.00,0.0,WUHU216DAVISVP2,2013-01-17 05:53:00,
2013-01-17 00:58:00,39.1,36.9,29.96,SSW,205,2.0,10.0,92,0.00,,,0.00,0.0,WUHU216DAVISVP2,2013-01-17 05:58:00,
2013-01-17 01:03:00,39.0,36.9,29.97,SSW,212,2.2,7.0,92,0.00,,,0.00,0.0,WUHU216DAVISVP2,2013-01-17 06:03:00,
2013-01-17 01:08:00,38.9,36.8,29.97,SSW,213,3.6,7.0,92,0.00,,,0.00,0.0,WUHU216DAVISVP2,2013-01-17 06:08:00,
2013-01-17 01:13:00,38.9,37.0,29.97,SSW,212,4.0,7.0,93,0.00,,,0.00,0.0,WUHU216DAVISVP2,2013-01-17 06:13:00,
2013-01-17 01:18:00,38.8,36.9,29.98,SSW,208,4.1,7.0,93,0.00,,,0.00,0.0,WUHU216DAVISVP2,2013-01-17 06:18:00,
2013-01-17 01:23:00,38.7,36.8,29.98,SW,223,5.0,7.0,93,0.00,,,0.00,0.0,WUHU216DAVISVP2,2013-01-17 06:23:00,
2013-01-17 01:28:00,38.7,36.8,29.96,SSW,203,4.0,7.0,93,0.00,,,0.00,0.0,WUHU216DAVISVP2,2013-01-17 06:28:00,
2013-01-17 01:33:00,38.6,36.7,29.95,SSW,208,3.0,7.0,93,0.00,,,0.00,0.0,WUHU216DAVISVP2,2013-01-17 06:33:00,
2013-01-17 01:38:00,38.6,37.0,29.96,West,261,1.4,7.0,94,0.00,,,0.00,0.0,WUHU216DAVISVP2,2013-01-17 06:38:00,
2013-01-17 01:43:00,38.6,37.0,29.97,SW,234,2.5,7.0,94,0.00,,,0.00,0.0,WUHU216DAVISVP2,2013-01-17 06:43:00,
2013-01-17 01:48:00,38.6,37.0,29.97,WSW,258,3.6,6.0,94,0.00,,,0.00,0.0,WUHU216DAVISVP2,2013-01-17 06:48:00,
2013-01-17 01:53:00,38.6,37.0,29.97,SW,220,2.8,6.0,94,0.00,,,0.00,0.0,WUHU216DAVISVP2,2013-01-17 06:53:00,
2013-01-17 01:58:00,38.5,36.9,29.97,SSW,213,3.1,6.0,94,0.00,,,0.00,0.0,WUHU216DAVISVP2,2013-01-17 06:58:00,
2013-01-17 02:03:00,38.5,36.9,29.98,SSW,199,7.0,7.0,94,0.00,,,0.00,0.0,WUHU216DAVISVP2,2013-01-17 07:03:00,
2013-01-17 02:08:00,38.6,37.0,29.98,SSW,205,5.0,8.0,94,0.00,,,0.00,0.0,WUHU216DAVISVP2,2013-01-17 07:08:00,
2013-01-17 02:13:00,38.6,37.0,29.99,West,259,4.3,8.0,94,0.00,,,0.00,0.0,WUHU216DAVISVP2,2013-01-17 07:13:00,
2013-01-17 02:18:00,38.6,37.0,29.98,WSW,255,2.7,8.0,94,0.00,,,0.00,0.0,WUHU216DAVISVP2,2013-01-17 07:18:00,
2013-01-17 02:23:00,38.5,36.9,29.98,SSW,209,5.0,7.0,94,0.00,,,0.00,0.0,WUHU216DAVISVP2,2013-01-17 07:23:00,
2013-01-17 02:28:00,38.5,36.9,29.98,SW,215,3.0,7.0,94,0.00,,,0.00,0.0,WUHU216DAVISVP2,2013-01-17 07:28:00,
2013-01-17 02:33:00,38.5,36.9,29.98,SW,216,4.0,8.0,94,0.00,,,0.00,0.0,WUHU216DAVISVP2,2013-01-17 07:33:00,
2013-01-17 02:38:00,38.5,36.9,29.98,SW,230,3.3,8.0,94,0.00,,,0.00,0.0,WUHU216DAVISVP2,2013-01-17 07:38:00,
2013-01-17 02:43:00,38.5,36.9,29.99,West,262,3.9,8.0,94,0.00,,,0.00,0.0,WUHU216DAVISVP2,2013-01-17 07:43:00,
2013-01-17 02:48:00,38.5,36.9,29.99,WSW,253,2.9,8.0,94,0.00,,,0.00,0.0,WUHU216DAVISVP2,2013-01-17 07:48:00,
2013-01-17 02:53:00,38.6,37.0,29.98,WSW,254,3.3,8.0,94,0.00,,,0.00,0.0,WUHU216DAVISVP2,2013-01-17 07:53:00,
2013-01-17 02:58:00,38.6,37.0,29.99,SSW,212,2.4,8.0,94,0.00,,,0.00,0.0,WUHU216DAVISVP2,2013-01-17 07:58:00,
2013-01-17 03:03:00,38.6,37.0,29.99,SSW,213,2.9,7.0,94,0.00,,,0.00,0.0,WUHU216DAVISVP2,2013-01-17 08:03:00,
2013-01-17 03:08:00,38.5,36.9,29.99,SW,216,3.2,7.0,94,0.00,,,0.00,0.0,WUHU216DAVISVP2,2013-01-17 08:08:00,
2013-01-17 03:13:00,38.5,36.9,29.98,SSW,204,3.5,6.0,94,0.00,,,0.00,0.0,WUHU216DAVISVP2,2013-01-17 08:13:00,
2013-01-17 03:18:00,38.5,36.9,29.98,SW,218,5.0,6.0,94,0.00,,,0.00,0.0,WUHU216DAVISVP2,2013-01-17 08:18:00,
2013-01-17 03:23:00,38.5,36.9,29.98,SSW,209,5.0,6.0,94,0.00,,,0.00,0.0,WUHU216DAVISVP2,2013-01-17 08:23:00,
2013-01-17 03:28:00,38.5,36.9,29.97,West,262,3.0,6.0,94,0.00,,,0.00,0.0,WUHU216DAVISVP2,2013-01-17 08:28:00,
2013-01-17 03:33:00,38.6,37.0,29.98,WSW,255,3.7,6.0,94,0.00,,,0.00,0.0,WUHU216DAVISVP2,2013-01-17 08:33:00,
2013-01-17 03:38:00,38.6,37.0,29.98,WSW,252,1.6,6.0,94,0.00,,,0.00,0.0,WUHU216DAVISVP2,2013-01-17 08:38:00,
2013-01-17 03:43:00,38.6,37.0,29.98,SW,220,3.2,6.0,94,0.00,,,0.00,0.0,WUHU216DAVISVP2,2013-01-17 08:43:00,
2013-01-17 03:48:00,38.6,37.0,29.97,SW,214,3.2,6.0,94,0.00,,,0.00,0.0,WUHU216DAVISVP2,2013-01-17 08:48:00,
2013-01-17 03:53:00,38.7,36.8,29.97,SW,223,2.1,5.0,93,0.00,,,0.00,0.0,WUHU216DAVISVP2,2013-01-17 08:53:00,
2013-01-17 03:58:00,38.6,36.7,29.97,SW,235,2.2,5.0,93,0.00,,,0.00,0.0,WUHU216DAVISVP2,2013-01-17 08:58:00,
2013-01-17 04:03:00,38.6,36.7,29.97,SSW,213,3.4,5.0,93,0.00,,,0.00,0.0,WUHU216DAVISVP2,2013-01-17 09:03:00,
2013-01-17 04:08:00,38.6,36.7,29.97,WSW,252,1.4,5.0,93,0.00,,,0.00,0.0,WUHU216DAVISVP2,2013-01-17 09:08:00,
2013-01-17 04:13:00,38.5,36.6,29.97,SSW,211,3.5,5.0,93,0.00,,,0.00,0.0,WUHU216DAVISVP2,2013-01-17 09:13:00,
2013-01-17 04:18:00,38.5,36.6,29.97,SSW,211,2.5,5.0,93,0.00,,,0.00,0.0,WUHU216DAVISVP2,2013-01-17 09:18:00,
2013-01-17 04:23:00,38.6,36.7,29.97,West,263,3.0,5.0,93,0.00,,,0.00,0.0,WUHU216DAVISVP2,2013-01-17 09:23:00,
2013-01-17 04:28:00,38.6,36.7,29.97,WSW,258,2.5,5.0,93,0.00,,,0.00,0.0,WUHU216DAVISVP2,2013-01-17 09:28:00,
2013-01-17 04:33:00,38.6,36.7,29.97,SW,219,5.0,5.0,93,0.00,,,0.00,0.0,WUHU216DAVISVP2,2013-01-17 09:33:00,
2013-01-17 04:38:00,38.5,36.6,29.98,SW,227,1.5,6.0,93,0.00,,,0.00,0.0,WUHU216DAVISVP2,2013-01-17 09:38:00,
2013-01-17 04:43:00,38.5,36.6,29.97,SSW,208,2.0,6.0,93,0.00,,,0.00,0.0,WUHU216DAVISVP2,2013-01-17 09:43:00,
2013-01-17 04:48:00,38.5,36.6,29.97,WSW,254,4.0,6.0,93,0.00,,,0.00,0.0,WUHU216DAVISVP2,2013-01-17 09:48:00,
2013-01-17 04:53:00,38.6,36.7,29.98,WSW,252,2.2,6.0,93,0.00,,,0.00,0.0,WUHU216DAVISVP2,2013-01-17 09:53:00,
2013-01-17 04:58:00,38.5,36.6,29.98,SSW,213,2.3,6.0,93,0.00,,,0.00,0.0,WUHU216DAVISVP2,2013-01-17 09:58:00,
2013-01-17 05:03:00,38.5,36.6,29.97,WSW,250,5.0,6.0,93,0.00,,,0.00,0.0,WUHU216DAVISVP2,2013-01-17 10:03:00,
2013-01-17 05:08:00,38.5,36.6,29.97,WSW,257,3.0,5.0,93,0.00,,,0.00,0.0,WUHU216DAVISVP2,2013-01-17 10:08:00,
2013-01-17 05:13:00,38.3,36.1,29.97,SW,223,2.5,5.0,92,0.00,,,0.00,0.0,WUHU216DAVISVP2,2013-01-17 10:13:00,
2013-01-17 05:18:00,38.3,36.1,29.97,SSW,210,3.1,5.0,92,0.00,,,0.00,0.0,WUHU216DAVISVP2,2013-01-17 10:18:00,
2013-01-17 05:23:00,38.2,36.0,29.97,SW,235,1.3,5.0,92,0.00,,,0.00,0.0,WUHU216DAVISVP2,2013-01-17 10:23:00,
2013-01-17 05:28:00,38.1,36.2,29.98,West,259,3.1,5.0,93,0.00,,,0.00,0.0,WUHU216DAVISVP2,2013-01-17 10:28:00,
2013-01-17 05:33:00,38.1,36.2,29.98,WSW,244,2.5,5.0,93,0.00,,,0.00,0.0,WUHU216DAVISVP2,2013-01-17 10:33:00,
2013-01-17 05:38:00,38.0,36.1,29.98,SSW,202,4.0,6.0,93,0.00,,,0.00,0.0,WUHU216DAVISVP2,2013-01-17 10:38:00,
2013-01-17 05:43:00,38.0,36.1,29.99,WSW,257,2.7,6.0,93,0.00,,,0.00,0.0,WUHU216DAVISVP2,2013-01-17 10:43:00,
2013-01-17 05:48:00,38.0,36.1,29.99,West,264,2.0,6.0,93,0.00,,,0.00,0.0,WUHU216DAVISVP2,2013-01-17 10:48:00,
2013-01-17 05:54:00,37.9,36.0,29.98,West,264,1.0,6.0,93,0.00,,,0.00,0.0,WUHU216DAVISVP2,2013-01-17 10:54:00,
2013-01-17 05:59:00,37.9,35.7,29.99,West,264,2.0,4.0,92,0.00,,,0.00,0.0,WUHU216DAVISVP2,2013-01-17 10:59:00,
2013-01-17 06:04:00,38.0,35.8,29.99,West,265,3.0,4.0,92,0.00,,,0.00,0.0,WUHU216DAVISVP2,2013-01-17 11:04:00,
2013-01-17 06:09:00,38.1,35.7,29.99,WSW,255,3.9,6.0,91,0.00,,,0.00,0.0,WUHU216DAVISVP2,2013-01-17 11:09:00,
2013-01-17 06:14:00,38.5,35.2,30.00,West,259,7.0,8.0,88,0.00,,,0.00,0.0,WUHU216DAVISVP2,2013-01-17 11:14:00,
2013-01-17 06:19:00,38.9,34.8,30.01,WSW,258,8.0,10.0,85,0.00,,,0.00,0.0,WUHU216DAVISVP2,2013-01-17 11:19:00,
2013-01-17 06:24:00,39.1,34.7,30.01,West,265,4.2,10.0,84,0.00,,,0.00,0.0,WUHU216DAVISVP2,2013-01-17 11:24:00,
2013-01-17 06:29:00,39.2,34.2,30.02,West,264,4.9,10.0,82,0.00,,,0.00,0.0,WUHU216DAVISVP2,2013-01-17 11:29:00,
2013-01-17 06:34:00,39.3,34.3,30.02,West,265,5.0,10.0,82,0.00,,,0.00,0.0,WUHU216DAVISVP2,2013-01-17 11:34:00,
2013-01-17 06:39:00,39.4,33.8,30.02,West,272,5.7,11.0,80,0.00,,,0.00,0.0,WUHU216DAVISVP2,2013-01-17 11:39:00,
2013-01-17 06:44:00,39.4,33.8,30.02,West,265,4.0,11.0,80,0.00,,,0.00,0.0,WUHU216DAVISVP2,2013-01-17 11:44:00,
2013-01-17 06:49:00,39.3,33.7,30.03,West,263,11.0,11.0,80,0.00,,,0.00,0.0,WUHU216DAVISVP2,2013-01-17 11:49:00,
2013-01-17 06:54:00,39.4,33.5,30.04,WSW,257,4.7,11.0,79,0.00,,,0.00,0.0,WUHU216DAVISVP2,2013-01-17 11:54:00,
2013-01-17 06:59:00,39.5,33.6,30.03,West,271,3.3,11.0,79,0.00,,,0.00,0.0,WUHU216DAVISVP2,2013-01-17 11:59:00,
2013-01-17 07:04:00,39.4,33.4,30.03,West,260,5.0,11.0,79,0.00,,,0.00,0.0,WUHU216DAVISVP2,2013-01-17 12:04:00,
2013-01-17 07:09:00,39.3,33.0,30.04,West,267,5.7,12.0,78,0.00,,,0.00,0.0,WUHU216DAVISVP2,2013-01-17 12:09:00,
2013-01-17 07:14:00,39.3,33.0,30.04,West,263,4.2,12.0,78,0.00,,,0.00,0.0,WUHU216DAVISVP2,2013-01-17 12:14:00,
2013-01-17 07:19:00,39.2,33.3,30.05,West,276,4.0,12.0,79,0.00,,,0.00,5.0,WUHU216DAVISVP2,2013-01-17 12:19:00,
2013-01-17 07:24:00,39.1,32.9,30.05,West,261,4.0,12.0,78,0.00,,,0.00,7.0,WUHU216DAVISVP2,2013-01-17 12:24:00,
2013-01-17 07:29:00,39.1,32.9,30.05,West,260,3.3,8.0,78,0.00,,,0.00,11.0,WUHU216DAVISVP2,2013-01-17 12:29:00,
2013-01-17 07:34:00,39.1,32.9,30.05,West,272,2.5,7.0,78,0.00,,,0.00,14.0,WUHU216DAVISVP2,2013-01-17 12:34:00,
2013-01-17 07:39:00,39.0,32.8,30.05,West,265,3.6,7.0,78,0.00,,,0.00,14.0,WUHU216DAVISVP2,2013-01-17 12:39:00,
2013-01-17 07:44:00,39.0,32.7,30.05,West,275,4.0,7.0,78,0.00,,,0.00,18.0,WUHU216DAVISVP2,2013-01-17 12:44:00,
2013-01-17 07:49:00,38.9,32.6,30.06,West,259,2.3,7.0,78,0.00,,,0.00,26.0,WUHU216DAVISVP2,2013-01-17 12:49:00,
2013-01-17 07:54:00,38.8,32.6,30.06,West,261,4.0,7.0,78,0.00,,,0.00,28.0,WUHU216DAVISVP2,2013-01-17 12:54:00,
2013-01-17 07:59:00,38.9,32.7,30.07,West,269,2.7,7.0,78,0.00,,,0.00,44.0,WUHU216DAVISVP2,2013-01-17 12:59:00,
2013-01-17 08:04:00,38.9,32.6,30.07,West,269,4.0,7.0,78,0.00,,,0.00,49.0,WUHU216DAVISVP2,2013-01-17 13:04:00,
2013-01-17 08:09:00,39.0,32.8,30.07,WNW,297,2.9,7.0,78,0.00,,,0.00,70.0,WUHU216DAVISVP2,2013-01-17 13:09:00,
2013-01-17 08:14:00,39.1,32.5,30.06,West,272,4.2,7.0,77,0.00,,,0.00,65.0,WUHU216DAVISVP2,2013-01-17 13:14:00,
2013-01-17 08:19:00,39.2,32.6,30.07,WSW,246,7.0,7.0,77,0.00,,,0.00,76.0,WUHU216DAVISVP2,2013-01-17 13:19:00,
2013-01-17 08:24:00,39.3,32.4,30.07,West,265,3.1,9.0,76,0.00,,,0.00,63.0,WUHU216DAVISVP2,2013-01-17 13:24:00,
2013-01-17 08:29:00,39.3,32.4,30.08,West,280,3.1,9.0,76,0.00,,,0.00,51.0,WUHU216DAVISVP2,2013-01-17 13:29:00,
2013-01-17 08:34:00,39.3,32.7,30.08,NW,308,6.0,9.0,77,0.00,,,0.00,49.0,WUHU216DAVISVP2,2013-01-17 13:34:00,
2013-01-17 08:39:00,39.3,32.4,30.09,West,264,3.6,7.0,76,0.00,,,0.00,56.0,WUHU216DAVISVP2,2013-01-17 13:39:00,
2013-01-17 08:44:00,39.3,32.4,30.09,West,266,4.0,7.0,76,0.00,,,0.00,54.0,WUHU216DAVISVP2,2013-01-17 13:44:00,
2013-01-17 08:49:00,39.3,32.7,30.08,West,267,6.0,7.0,77,0.00,,,0.00,60.0,WUHU216DAVISVP2,2013-01-17 13:49:00,
2013-01-17 08:54:00,39.3,32.4,30.09,West,277,2.9,7.0,76,0.00,,,0.00,67.0,WUHU216DAVISVP2,2013-01-17 13:54:00,
2013-01-17 08:59:00,39.4,32.8,30.09,West,277,4.0,9.0,77,0.00,,,0.00,63.0,WUHU216DAVISVP2,2013-01-17 13:59:00,
2013-01-17 09:04:00,39.4,32.5,30.09,West,276,7.0,10.0,76,0.00,,,0.00,74.0,WUHU216DAVISVP2,2013-01-17 14:04:00,
2013-01-17 09:09:00,39.3,32.4,30.08,West,272,5.0,10.0,76,0.00,,,0.00,58.0,WUHU216DAVISVP2,2013-01-17 14:09:00,
2013-01-17 09:14:00,39.3,32.4,30.08,WNW,300,6.0,10.0,76,0.00,,,0.00,62.0,WUHU216DAVISVP2,2013-01-17 14:14:00,
2013-01-17 09:19:00,39.4,32.5,30.09,West,268,4.4,10.0,76,0.00,,,0.00,84.0,WUHU216DAVISVP2,2013-01-17 14:19:00,
2013-01-17 09:24:00,39.4,32.2,30.09,NW,323,5.0,10.0,75,0.00,,,0.00,93.0,WUHU216DAVISVP2,2013-01-17 14:24:00,
2013-01-17 09:29:00,39.5,32.6,30.09,WNW,291,2.2,9.0,76,0.00,,,0.00,77.0,WUHU216DAVISVP2,2013-01-17 14:29:00,
2013-01-17 09:34:00,39.5,32.6,30.10,WSW,254,5.0,8.0,76,0.00,,,0.00,102.0,WUHU216DAVISVP2,2013-01-17 14:34:00,
2013-01-17 09:39:00,39.6,32.7,30.10,WNW,288,5.0,8.0,76,0.00,,,0.00,111.0,WUHU216DAVISVP2,2013-01-17 14:39:00,
2013-01-17 09:44:00,39.6,32.4,30.10,West,265,4.2,7.0,75,0.00,,,0.00,127.0,WUHU216DAVISVP2,2013-01-17 14:44:00,
2013-01-17 09:49:00,39.7,32.5,30.10,West,265,4.0,7.0,75,0.00,,,0.00,130.0,WUHU216DAVISVP2,2013-01-17 14:49:00,
2013-01-17 09:54:00,39.7,32.2,30.10,West,271,7.0,8.0,74,0.00,,,0.00,127.0,WUHU216DAVISVP2,2013-01-17 14:54:00,
2013-01-17 09:59:00,39.8,32.6,30.09,WNW,298,6.0,8.0,75,0.00,,,0.00,149.0,WUHU216DAVISVP2,2013-01-17 14:59:00,
2013-01-17 10:04:00,40.2,33.0,30.09,WNW,285,4.0,8.0,75,0.00,,,0.00,172.0,WUHU216DAVISVP2,2013-01-17 15:04:00,
2013-01-17 10:09:00,40.2,32.3,30.09,West,277,5.1,8.0,73,0.00,,,0.00,114.0,WUHU216DAVISVP2,2013-01-17 15:09:00,
2013-01-17 10:14:00,40.1,32.5,30.08,WNW,284,2.9,8.0,74,0.00,,,0.00,114.0,WUHU216DAVISVP2,2013-01-17 15:14:00,
2013-01-17 10:19:00,40.0,32.4,30.09,West,281,4.0,8.0,74,0.00,,,0.00,134.0,WUHU216DAVISVP2,2013-01-17 15:19:00,
2013-01-17 10:24:00,40.0,32.1,30.10,West,268,6.4,9.0,73,0.00,,,0.00,120.0,WUHU216DAVISVP2,2013-01-17 15:24:00,
2013-01-17 10:29:00,40.0,32.8,30.10,WNW,287,5.0,9.0,75,0.00,,,0.00,134.0,WUHU216DAVISVP2,2013-01-17 15:29:00,
2013-01-17 10:34:00,40.1,32.5,30.09,WNW,294,1.8,9.0,74,0.00,,,0.00,169.0,WUHU216DAVISVP2,2013-01-17 15:34:00,
2013-01-17 10:39:00,40.1,32.5,30.09,West,262,3.4,9.0,74,0.00,,,0.00,162.0,WUHU216DAVISVP2,2013-01-17 15:39:00,
2013-01-17 10:44:00,40.2,32.6,30.09,West,269,3.0,7.0,74,0.00,,,0.00,151.0,WUHU216DAVISVP2,2013-01-17 15:44:00,
2013-01-17 10:49:00,40.3,32.4,30.09,West,272,4.5,7.0,73,0.00,,,0.00,186.0,WUHU216DAVISVP2,2013-01-17 15:49:00,
2013-01-17 10:54:00,40.4,32.5,30.09,WNW,285,4.3,9.0,73,0.00,,,0.00,149.0,WUHU216DAVISVP2,2013-01-17 15:54:00,
2013-01-17 10:59:00,40.5,32.6,30.09,West,273,3.4,9.0,73,0.00,,,0.00,202.0,WUHU216DAVISVP2,2013-01-17 15:59:00,
2013-01-17 11:04:00,40.7,32.4,30.09,West,270,5.8,10.0,72,0.00,,,0.00,199.0,WUHU216DAVISVP2,2013-01-17 16:04:00,
2013-01-17 11:09:00,40.7,32.4,30.09,West,276,4.5,10.0,72,0.00,,,0.00,162.0,WUHU216DAVISVP2,2013-01-17 16:09:00,
2013-01-17 11:14:00,40.7,32.8,30.09,WNW,292,1.9,10.0,73,0.00,,,0.00,116.0,WUHU216DAVISVP2,2013-01-17 16:14:00,
2013-01-17 11:19:00,40.8,32.5,30.09,West,272,4.6,12.0,72,0.00,,,0.00,176.0,WUHU216DAVISVP2,2013-01-17 16:19:00,
2013-01-17 11:24:00,40.8,32.5,30.10,West,260,4.0,12.0,72,0.00,,,0.00,229.0,WUHU216DAVISVP2,2013-01-17 16:24:00,
2013-01-17 11:29:00,41.1,33.2,30.10,West,270,5.5,12.0,73,0.00,,,0.00,306.0,WUHU216DAVISVP2,2013-01-17 16:29:00,
2013-01-17 11:34:00,41.4,32.8,30.09,WSW,254,3.5,12.0,71,0.00,,,0.00,255.0,WUHU216DAVISVP2,2013-01-17 16:34:00,
2013-01-17 11:39:00,41.8,33.2,30.09,West,269,4.0,10.0,71,0.00,,,0.00,260.0,WUHU216DAVISVP2,2013-01-17 16:39:00,
2013-01-17 11:44:00,42.1,32.7,30.09,WNW,283,3.9,9.0,69,0.00,,,0.00,197.0,WUHU216DAVISVP2,2013-01-17 16:44:00,
2013-01-17 11:49:00,42.1,32.0,30.08,WSW,239,5.0,10.0,67,0.00,,,0.00,167.0,WUHU216DAVISVP2,2013-01-17 16:49:00,
2013-01-17 11:54:00,42.0,31.9,30.09,West,281,5.0,10.0,67,0.00,,,0.00,163.0,WUHU216DAVISVP2,2013-01-17 16:54:00,
2013-01-17 11:59:00,42.1,32.4,30.09,NW,305,3.1,10.0,68,0.00,,,0.00,195.0,WUHU216DAVISVP2,2013-01-17 16:59:00,
2013-01-17 12:04:00,42.2,32.1,30.09,West,279,8.0,10.0,67,0.00,,,0.00,216.0,WUHU216DAVISVP2,2013-01-17 17:04:00,
2013-01-17 12:09:00,42.2,31.7,30.08,West,278,6.1,10.0,66,0.00,,,0.00,236.0,WUHU216DAVISVP2,2013-01-17 17:09:00,
2013-01-17 12:14:00,42.2,32.1,30.08,West,275,4.5,12.0,67,0.00,,,0.00,264.0,WUHU216DAVISVP2,2013-01-17 17:14:00,
2013-01-17 12:19:00,42.4,31.6,30.08,West,279,7.6,13.0,65,0.00,,,0.00,329.0,WUHU216DAVISVP2,2013-01-17 17:19:00,
2013-01-17 12:24:00,42.9,32.8,30.08,WSW,240,5.0,13.0,67,0.00,,,0.00,519.0,WUHU216DAVISVP2,2013-01-17 17:24:00,
2013-01-17 12:29:00,43.5,33.4,30.08,NW,322,5.0,13.0,67,0.00,,,0.00,598.0,WUHU216DAVISVP2,2013-01-17 17:29:00,
2013-01-17 12:34:00,43.9,32.6,30.09,NW,305,6.0,13.0,64,0.00,,,0.00,585.0,WUHU216DAVISVP2,2013-01-17 17:34:00,
2013-01-17 12:39:00,44.3,33.7,30.08,WNW,287,3.7,12.0,66,0.00,,,0.00,571.0,WUHU216DAVISVP2,2013-01-17 17:39:00,
2013-01-17 12:44:00,44.5,33.2,30.08,West,265,6.0,10.0,64,0.00,,,0.00,534.0,WUHU216DAVISVP2,2013-01-17 17:44:00,
2013-01-17 12:49:00,44.2,33.3,30.08,West,275,4.0,13.0,65,0.00,,,0.00,339.0,WUHU216DAVISVP2,2013-01-17 17:49:00,
2013-01-17 12:54:00,44.0,32.3,30.07,NW,306,9.0,13.0,63,0.00,,,0.00,431.0,WUHU216DAVISVP2,2013-01-17 17:54:00,
2013-01-17 12:59:00,43.8,32.9,30.08,WNW,291,5.9,13.0,65,0.00,,,0.00,478.0,WUHU216DAVISVP2,2013-01-17 17:59:00,
2013-01-17 13:04:00,44.1,33.2,30.08,West,277,6.0,13.0,65,0.00,,,0.00,589.0,WUHU216DAVISVP2,2013-01-17 18:04:00,
2013-01-17 13:09:00,43.6,32.3,30.08,NW,309,5.0,14.0,64,0.00,,,0.00,383.0,WUHU216DAVISVP2,2013-01-17 18:09:00,
2013-01-17 13:14:00,43.3,32.0,30.07,West,263,5.0,14.0,64,0.00,,,0.00,214.0,WUHU216DAVISVP2,2013-01-17 18:14:00,
2013-01-17 13:19:00,43.2,32.7,30.07,NNE,15,5.0,14.0,66,0.00,,,0.00,274.0,WUHU216DAVISVP2,2013-01-17 18:19:00,
2013-01-17 13:24:00,43.1,32.2,30.07,NNW,340,9.0,14.0,65,0.00,,,0.00,258.0,WUHU216DAVISVP2,2013-01-17 18:24:00,
2013-01-17 13:29:00,43.2,32.3,30.07,NW,307,3.6,11.0,65,0.00,,,0.00,174.0,WUHU216DAVISVP2,2013-01-17 18:29:00,
2013-01-17 13:34:00,43.1,32.2,30.07,WNW,297,3.7,11.0,65,0.00,,,0.00,135.0,WUHU216DAVISVP2,2013-01-17 18:34:00,
2013-01-17 13:39:00,42.9,32.0,30.07,NW,326,2.4,11.0,65,0.00,,,0.00,149.0,WUHU216DAVISVP2,2013-01-17 18:39:00,
2013-01-17 13:44:00,42.9,32.4,30.06,NNW,342,3.0,8.0,66,0.00,,,0.00,181.0,WUHU216DAVISVP2,2013-01-17 18:44:00,
2013-01-17 13:49:00,42.9,32.0,30.06,NW,304,1.9,8.0,65,0.00,,,0.00,139.0,WUHU216DAVISVP2,2013-01-17 18:49:00,
2013-01-17 13:54:00,42.8,31.9,30.05,NW,313,2.5,8.0,65,0.00,,,0.00,121.0,WUHU216DAVISVP2,2013-01-17 18:54:00,
2013-01-17 13:59:00,42.8,32.3,30.05,NW,313,2.5,5.0,66,0.00,,,0.00,141.0,WUHU216DAVISVP2,2013-01-17 18:59:00,
2013-01-17 14:04:00,43.0,32.5,30.06,NW,326,1.5,5.0,66,0.00,,,0.00,216.0,WUHU216DAVISVP2,2013-01-17 19:04:00,
2013-01-17 14:09:00,43.2,33.1,30.06,WNW,302,1.9,5.0,67,0.00,,,0.00,160.0,WUHU216DAVISVP2,2013-01-17 19:09:00,
2013-01-17 14:14:00,43.3,32.4,30.06,West,266,3.5,6.0,65,0.00,,,0.00,130.0,WUHU216DAVISVP2,2013-01-17 19:14:00,
2013-01-17 14:19:00,43.2,32.7,30.06,NW,306,2.3,7.0,66,0.00,,,0.00,169.0,WUHU216DAVISVP2,2013-01-17 19:19:00,
2013-01-17 14:24:00,43.3,32.8,30.06,WNW,282,2.4,7.0,66,0.00,,,0.00,149.0,WUHU216DAVISVP2,2013-01-17 19:24:00,
2013-01-17 14:29:00,43.3,32.8,30.06,WNW,288,3.0,7.0,66,0.00,,,0.00,156.0,WUHU216DAVISVP2,2013-01-17 19:29:00,
2013-01-17 14:34:00,43.2,32.7,30.06,West,275,3.4,7.0,66,0.00,,,0.00,146.0,WUHU216DAVISVP2,2013-01-17 19:34:00,
2013-01-17 14:39:00,43.4,32.5,30.06,West,274,1.8,7.0,65,0.00,,,0.00,118.0,WUHU216DAVISVP2,2013-01-17 19:39:00,
2013-01-17 14:44:00,43.4,32.5,30.06,West,274,3.5,7.0,65,0.00,,,0.00,105.0,WUHU216DAVISVP2,2013-01-17 19:44:00,
2013-01-17 14:49:00,43.4,32.5,30.06,WNW,302,4.0,7.0,65,0.00,,,0.00,74.0,WUHU216DAVISVP2,2013-01-17 19:49:00,
2013-01-17 14:54:00,43.3,31.6,30.07,NNW,336,4.0,8.0,63,0.00,,,0.00,54.0,WUHU216DAVISVP2,2013-01-17 19:54:00,
2013-01-17 14:59:00,43.1,31.4,30.06,West,276,4.0,8.0,63,0.00,,,0.00,46.0,WUHU216DAVISVP2,2013-01-17 19:59:00,
2013-01-17 15:04:00,43.0,31.3,30.05,WNW,298,3.4,8.0,63,0.00,,,0.00,40.0,WUHU216DAVISVP2,2013-01-17 20:04:00,
2013-01-17 15:09:00,42.8,31.2,30.06,West,265,4.0,8.0,63,0.00,,,0.00,46.0,WUHU216DAVISVP2,2013-01-17 20:09:00,
2013-01-17 15:14:00,42.8,31.5,30.06,WNW,294,2.2,7.0,64,0.00,,,0.00,39.0,WUHU216DAVISVP2,2013-01-17 20:14:00,
2013-01-17 15:19:00,42.8,31.5,30.06,NW,313,3.0,7.0,64,0.00,,,0.00,37.0,WUHU216DAVISVP2,2013-01-17 20:19:00,
2013-01-17 15:24:00,42.7,31.1,30.06,West,280,4.4,8.0,63,0.00,,,0.00,32.0,WUHU216DAVISVP2,2013-01-17 20:24:00,
2013-01-17 15:29:00,42.6,31.4,30.07,West,266,6.0,8.0,64,0.00,,,0.00,33.0,WUHU216DAVISVP2,2013-01-17 20:29:00,
2013-01-17 15:34:00,42.5,31.3,30.08,West,273,6.0,8.0,64,0.00,,,0.00,23.0,WUHU216DAVISVP2,2013-01-17 20:34:00,
2013-01-17 15:39:00,42.5,31.3,30.07,WNW,293,5.0,8.0,64,0.00,,,0.00,25.0,WUHU216DAVISVP2,2013-01-17 20:39:00,
2013-01-17 15:44:00,42.5,31.3,30.07,WNW,294,2.5,7.0,64,0.00,,,0.00,19.0,WUHU216DAVISVP2,2013-01-17 20:44:00,
2013-01-17 15:49:00,42.5,31.3,30.08,WNW,288,2.0,7.0,64,0.00,,,0.00,19.0,WUHU216DAVISVP2,2013-01-17 20:49:00,
2013-01-17 15:54:00,42.4,31.2,30.08,WNW,301,2.0,7.0,64,0.00,,,0.00,14.0,WUHU216DAVISVP2,2013-01-17 20:54:00,
2013-01-17 15:59:00,42.4,31.6,30.08,West,277,0.0,5.0,65,0.00,,,0.00,14.0,WUHU216DAVISVP2,2013-01-17 20:59:00,
2013-01-17 16:04:00,42.3,31.5,30.06,NW,304,1.3,4.0,65,0.00,,,0.00,7.0,WUHU216DAVISVP2,2013-01-17 21:04:00,
2013-01-17 16:09:00,42.3,31.5,30.07,NNW,338,1.0,4.0,65,0.00,,,0.00,9.0,WUHU216DAVISVP2,2013-01-17 21:09:00,
2013-01-17 16:14:00,42.2,31.4,30.07,NNW,338,1.0,4.0,65,0.00,,,0.00,9.0,WUHU216DAVISVP2,2013-01-17 21:14:00,
2013-01-17 16:19:00,42.2,31.4,30.08,NNW,338,1.0,3.0,65,0.00,,,0.00,9.0,WUHU216DAVISVP2,2013-01-17 21:19:00,
2013-01-17 16:24:00,42.2,31.7,30.09,NW,321,2.0,2.0,66,0.00,,,0.00,11.0,WUHU216DAVISVP2,2013-01-17 21:24:00,
2013-01-17 16:29:00,42.2,31.7,30.08,NW,321,0.0,2.0,66,0.00,,,0.00,7.0,WUHU216DAVISVP2,2013-01-17 21:29:00,
2013-01-17 16:34:00,42.1,31.6,30.08,NW,321,0.0,2.0,66,0.00,,,0.00,5.0,WUHU216DAVISVP2,2013-01-17 21:34:00,
2013-01-17 16:39:00,42.1,31.6,30.09,NW,321,1.0,2.0,66,0.00,,,0.00,0.0,WUHU216DAVISVP2,2013-01-17 21:39:00,
2013-01-17 16:44:00,42.0,31.9,30.10,NW,321,0.0,1.0,67,0.00,,,0.00,0.0,WUHU216DAVISVP2,2013-01-17 21:44:00,
2013-01-17 16:49:00,41.8,31.7,30.10,NW,321,0.0,2.0,67,0.00,,,0.00,0.0,WUHU216DAVISVP2,2013-01-17 21:49:00,
2013-01-17 16:54:00,41.7,32.0,30.09,NW,321,0.0,2.0,68,0.00,,,0.00,0.0,WUHU216DAVISVP2,2013-01-17 21:54:00,
2013-01-17 16:59:00,41.5,31.8,30.10,NW,321,0.0,2.0,68,0.00,,,0.00,0.0,WUHU216DAVISVP2,2013-01-17 21:59:00,
2013-01-17 17:04:00,41.5,32.2,30.11,NW,321,0.0,1.0,69,0.00,,,0.00,0.0,WUHU216DAVISVP2,2013-01-17 22:04:00,
2013-01-17 17:09:00,41.4,32.1,30.10,NW,321,0.0,1.0,69,0.00,,,0.00,0.0,WUHU216DAVISVP2,2013-01-17 22:09:00,
2013-01-17 17:14:00,41.3,32.0,30.10,NW,321,0.0,2.0,69,0.00,,,0.00,0.0,WUHU216DAVISVP2,2013-01-17 22:14:00,
2013-01-17 17:19:00,41.3,32.0,30.10,NW,321,1.0,2.0,69,0.00,,,0.00,0.0,WUHU216DAVISVP2,2013-01-17 22:19:00,
2013-01-17 17:24:00,41.2,31.9,30.08,NW,321,1.0,2.0,69,0.00,,,0.00,0.0,WUHU216DAVISVP2,2013-01-17 22:24:00,
2013-01-17 17:29:00,41.1,32.1,30.08,NW,321,0.0,2.0,70,0.00,,,0.00,0.0,WUHU216DAVISVP2,2013-01-17 22:29:00,
2013-01-17 17:34:00,41.0,32.4,30.10,NW,321,0.0,2.0,71,0.00,,,0.00,0.0,WUHU216DAVISVP2,2013-01-17 22:34:00,
2013-01-17 17:39:00,40.9,32.3,30.08,NW,321,0.0,1.0,71,0.00,,,0.00,0.0,WUHU216DAVISVP2,2013-01-17 22:39:00,
2013-01-17 17:44:00,40.7,32.8,30.07,NW,321,0.0,1.0,73,0.00,,,0.00,0.0,WUHU216DAVISVP2,2013-01-17 22:44:00,
2013-01-17 17:49:00,40.6,32.7,30.09,NW,321,1.2,2.0,73,0.00,,,0.00,0.0,WUHU216DAVISVP2,2013-01-17 22:49:00,
2013-01-17 17:54:00,40.6,32.7,30.10,NW,313,2.0,2.0,73,0.00,,,0.00,0.0,WUHU216DAVISVP2,2013-01-17 22:54:00,
2013-01-17 17:59:00,40.5,32.9,30.10,NW,313,0.0,2.0,74,0.00,,,0.00,0.0,WUHU216DAVISVP2,2013-01-17 22:59:00,
2013-01-17 18:04:00,40.4,32.8,30.10,NW,313,1.2,2.0,74,0.00,,,0.00,0.0,WUHU216DAVISVP2,2013-01-17 23:04:00,
2013-01-17 18:09:00,40.4,32.8,30.10,NW,313,1.6,3.0,74,0.00,,,0.00,0.0,WUHU216DAVISVP2,2013-01-17 23:09:00,
2013-01-17 18:14:00,40.4,32.5,30.09,NW,313,0.0,3.0,73,0.00,,,0.00,0.0,WUHU216DAVISVP2,2013-01-17 23:14:00,
2013-01-17 18:19:00,40.4,32.5,30.09,NW,313,0.0,3.0,73,0.00,,,0.00,0.0,WUHU216DAVISVP2,2013-01-17 23:19:00,
2013-01-17 18:24:00,40.3,32.7,30.10,NW,313,0.0,3.0,74,0.00,,,0.00,0.0,WUHU216DAVISVP2,2013-01-17 23:24:00,
2013-01-17 18:29:00,40.3,32.7,30.10,NW,313,0.0,2.0,74,0.00,,,0.00,0.0,WUHU216DAVISVP2,2013-01-17 23:29:00,
2013-01-17 18:34:00,40.2,32.6,30.11,NW,313,0.0,2.0,74,0.00,,,0.00,0.0,WUHU216DAVISVP2,2013-01-17 23:34:00,
2013-01-17 18:39:00,40.1,32.9,30.11,NW,313,1.0,2.0,75,0.00,,,0.00,0.0,WUHU216DAVISVP2,2013-01-17 23:39:00,
2013-01-17 18:44:00,40.1,32.9,30.09,NW,313,0.0,1.0,75,0.00,,,0.00,0.0,WUHU216DAVISVP2,2013-01-17 23:44:00,
2013-01-17 18:49:00,40.0,32.8,30.10,NW,313,0.0,1.0,75,0.00,,,0.00,0.0,WUHU216DAVISVP2,2013-01-17 23:49:00,
2013-01-17 18:54:00,40.0,33.1,30.09,NW,313,0.0,1.0,76,0.00,,,0.00,0.0,WUHU216DAVISVP2,2013-01-17 23:54:00,
2013-01-17 18:59:00,39.9,33.0,30.10,NW,313,0.0,1.0,76,0.00,,,0.00,0.0,WUHU216DAVISVP2,2013-01-17 23:59:00,
2013-01-17 19:04:00,39.8,32.9,30.10,NW,313,0.0,1.0,76,0.00,,,0.00,0.0,WUHU216DAVISVP2,2013-01-18 00:04:00,
2013-01-17 19:09:00,39.8,32.9,30.10,NW,313,1.0,1.0,76,0.00,,,0.00,0.0,WUHU216DAVISVP2,2013-01-18 00:09:00,
2013-01-17 19:14:00,39.9,33.0,30.09,NW,313,0.0,1.0,76,0.00,,,0.00,0.0,WUHU216DAVISVP2,2013-01-18 00:14:00,
2013-01-17 19:19:00,39.8,33.5,30.09,NW,313,0.0,1.0,78,0.00,,,0.00,0.0,WUHU216DAVISVP2,2013-01-18 00:19:00,
2013-01-17 19:24:00,39.7,33.4,30.09,NW,313,1.0,1.0,78,0.00,,,0.00,0.0,WUHU216DAVISVP2,2013-01-18 00:24:00,
2013-01-17 19:29:00,39.6,33.3,30.11,NW,313,2.0,3.0,78,0.00,,,0.00,0.0,WUHU216DAVISVP2,2013-01-18 00:29:00,
2013-01-17 19:34:00,39.6,33.3,30.11,WNW,301,2.0,3.0,78,0.00,,,0.00,0.0,WUHU216DAVISVP2,2013-01-18 00:34:00,
2013-01-17 19:39:00,39.6,33.6,30.10,WSW,254,1.0,3.0,79,0.00,,,0.00,0.0,WUHU216DAVISVP2,2013-01-18 00:39:00,
2013-01-17 19:44:00,39.5,33.6,30.11,WSW,254,0.0,3.0,79,0.00,,,0.00,0.0,WUHU216DAVISVP2,2013-01-18 00:44:00,
2013-01-17 19:49:00,39.4,33.5,30.11,WSW,254,1.0,3.0,79,0.00,,,0.00,0.0,WUHU216DAVISVP2,2013-01-18 00:49:00,
2013-01-17 19:54:00,39.3,33.4,30.09,WSW,254,0.0,3.0,79,0.00,,,0.00,0.0,WUHU216DAVISVP2,2013-01-18 00:54:00,
2013-01-17 19:59:00,39.2,33.6,30.09,WSW,254,0.0,1.0,80,0.00,,,0.00,0.0,WUHU216DAVISVP2,2013-01-18 00:59:00,
2013-01-17 20:04:00,39.2,33.6,30.10,WSW,254,0.0,1.0,80,0.00,,,0.00,0.0,WUHU216DAVISVP2,2013-01-18 01:04:00,
2013-01-17 20:09:00,39.1,33.5,30.09,WSW,254,0.0,0.0,80,0.00,,,0.00,0.0,WUHU216DAVISVP2,2013-01-18 01:09:00,
2013-01-17 20:14:00,39.0,33.4,30.09,WSW,254,0.0,0.0,80,0.00,,,0.00,0.0,WUHU216DAVISVP2,2013-01-18 01:14:00,
2013-01-17 20:18:00,38.9,33.3,30.08,WSW,254,0.0,0.0,80,0.00,,,0.00,0.0,WUHU216DAVISVP2,2013-01-18 01:18:00,
2013-01-17 20:24:00,38.9,33.9,30.08,WSW,254,0.0,0.0,82,0.00,,,0.00,0.0,WUHU216DAVISVP2,2013-01-18 01:24:00,
2013-01-17 20:28:00,38.8,33.8,30.07,WSW,254,0.0,0.0,82,0.00,,,0.00,0.0,WUHU216DAVISVP2,2013-01-18 01:28:00,
2013-01-17 20:33:00,38.7,34.0,30.07,WSW,254,0.0,0.0,83,0.00,,,0.00,0.0,WUHU216DAVISVP2,2013-01-18 01:33:00,
2013-01-17 20:38:00,38.7,34.0,30.07,WSW,254,0.0,0.0,83,0.00,,,0.00,0.0,WUHU216DAVISVP2,2013-01-18 01:38:00,
2013-01-17 20:44:00,38.6,34.2,30.07,WSW,254,0.0,0.0,84,0.00,,,0.00,0.0,WUHU216DAVISVP2,2013-01-18 01:44:00,
2013-01-17 20:49:00,38.6,34.5,30.07,WSW,254,0.0,0.0,85,0.00,,,0.00,0.0,WUHU216DAVISVP2,2013-01-18 01:49:00,
2013-01-17 20:54:00,38.5,34.4,30.07,WSW,254,0.0,0.0,85,0.00,,,0.00,0.0,WUHU216DAVISVP2,2013-01-18 01:54:00,
2013-01-17 20:59:00,38.3,34.5,30.08,WSW,254,1.0,2.0,86,0.00,,,0.00,0.0,WUHU216DAVISVP2,2013-01-18 01:59:00,
2013-01-17 21:04:00,38.2,34.4,30.08,WSW,254,0.0,2.0,86,0.00,,,0.00,0.0,WUHU216DAVISVP2,2013-01-18 02:04:00,
2013-01-17 21:09:00,38.1,34.3,30.07,WSW,254,0.0,2.0,86,0.00,,,0.00,0.0,WUHU216DAVISVP2,2013-01-18 02:09:00,
2013-01-17 21:14:00,38.1,34.3,30.07,WSW,254,0.0,2.0,86,0.00,,,0.00,0.0,WUHU216DAVISVP2,2013-01-18 02:14:00,
2013-01-17 21:19:00,38.1,34.3,30.06,WSW,254,0.0,1.0,86,0.00,,,0.00,0.0,WUHU216DAVISVP2,2013-01-18 02:19:00,
2013-01-17 21:24:00,38.1,34.5,30.06,WSW,254,0.0,0.0,87,0.00,,,0.00,0.0,WUHU216DAVISVP2,2013-01-18 02:24:00,
2013-01-17 21:29:00,38.0,34.4,30.06,WSW,254,0.0,0.0,87,0.00,,,0.00,0.0,WUHU216DAVISVP2,2013-01-18 02:29:00,
2013-01-17 21:34:00,38.0,34.4,30.07,WSW,254,0.0,1.0,87,0.00,,,0.00,0.0,WUHU216DAVISVP2,2013-01-18 02:34:00,
2013-01-17 21:39:00,38.0,34.4,30.07,WSW,254,0.0,1.0,87,0.00,,,0.00,0.0,WUHU216DAVISVP2,2013-01-18 02:39:00,
2013-01-17 21:44:00,38.0,34.4,30.05,WSW,254,0.0,1.0,87,0.00,,,0.00,0.0,WUHU216DAVISVP2,2013-01-18 02:44:00,
2013-01-17 21:49:00,37.9,34.3,30.05,WSW,254,0.0,1.0,87,0.00,,,0.00,0.0,WUHU216DAVISVP2,2013-01-18 02:49:00,
2013-01-17 21:54:00,37.9,34.3,30.05,WSW,254,0.0,1.0,87,0.00,,,0.00,0.0,WUHU216DAVISVP2,2013-01-18 02:54:00,
2013-01-17 21:59:00,37.9,33.8,30.04,WSW,254,1.0,1.0,85,0.00,,,0.00,0.0,WUHU216DAVISVP2,2013-01-18 02:59:00,
2013-01-17 22:04:00,38.0,33.0,30.03,NW,306,1.2,2.0,82,0.00,,,0.00,0.0,WUHU216DAVISVP2,2013-01-18 03:04:00,
2013-01-17 22:09:00,38.2,32.6,30.03,WNW,300,2.0,4.0,80,0.00,,,0.00,0.0,WUHU216DAVISVP2,2013-01-18 03:09:00,
2013-01-17 22:14:00,38.4,32.2,30.02,NNW,331,1.9,4.0,78,0.00,,,0.00,0.0,WUHU216DAVISVP2,2013-01-18 03:14:00,
2013-01-17 22:18:00,38.6,32.1,30.03,WNW,288,1.1,4.0,77,0.00,,,0.00,0.0,WUHU216DAVISVP2,2013-01-18 03:18:00,
2013-01-17 22:23:00,38.7,32.1,30.03,WNW,288,0.0,4.0,77,0.00,,,0.00,0.0,WUHU216DAVISVP2,2013-01-18 03:23:00,
2013-01-17 22:28:00,38.7,31.8,30.03,WNW,286,1.0,4.0,76,0.00,,,0.00,0.0,WUHU216DAVISVP2,2013-01-18 03:28:00,
2013-01-17 22:33:00,38.8,31.9,30.02,WNW,286,0.0,3.0,76,0.00,,,0.00,0.0,WUHU216DAVISVP2,2013-01-18 03:33:00,
2013-01-17 22:38:00,38.8,31.9,30.03,WNW,286,1.0,2.0,76,0.00,,,0.00,0.0,WUHU216DAVISVP2,2013-01-18 03:38:00,
2013-01-17 22:43:00,38.8,31.9,30.05,WNW,286,0.0,2.0,76,0.00,,,0.00,0.0,WUHU216DAVISVP2,2013-01-18 03:43:00,
2013-01-17 22:49:00,38.8,31.6,30.06,WNW,286,1.0,2.0,75,0.00,,,0.00,0.0,WUHU216DAVISVP2,2013-01-18 03:49:00,
2013-01-17 22:54:00,38.9,31.4,30.06,WNW,288,1.3,3.0,74,0.00,,,0.00,0.0,WUHU216DAVISVP2,2013-01-18 03:54:00,
2013-01-17 22:59:00,38.9,31.7,30.07,NW,315,2.0,3.0,75,0.00,,,0.00,0.0,WUHU216DAVISVP2,2013-01-18 03:59:00,
2013-01-17 23:04:00,38.9,31.7,30.06,NW,315,1.1,3.0,75,0.00,,,0.00,0.0,WUHU216DAVISVP2,2013-01-18 04:04:00,
2013-01-17 23:08:00,38.8,31.3,30.05,NW,320,1.9,4.0,74,0.00,,,0.00,0.0,WUHU216DAVISVP2,2013-01-18 04:08:00,
2013-01-17 23:13:00,38.8,30.9,30.04,North,6,2.8,5.0,73,0.00,,,0.00,0.0,WUHU216DAVISVP2,2013-01-18 04:13:00,
2013-01-17 23:18:00,38.7,30.9,30.03,North,349,2.6,5.0,73,0.00,,,0.00,0.0,WUHU216DAVISVP2,2013-01-18 04:18:00,
2013-01-17 23:23:00,38.5,30.3,30.04,North,1,2.4,5.0,72,0.00,,,0.00,0.0,WUHU216DAVISVP2,2013-01-18 04:23:00,
2013-01-17 23:28:00,38.4,29.9,30.05,NNE,25,2.0,5.0,71,0.00,,,0.00,0.0,WUHU216DAVISVP2,2013-01-18 04:28:00,
2013-01-17 23:33:00,38.3,29.8,30.05,North,7,2.0,5.0,71,0.00,,,0.00,0.0,WUHU216DAVISVP2,2013-01-18 04:33:00,
2013-01-17 23:38:00,38.3,29.8,30.03,North,2,2.3,5.0,71,0.00,,,0.00,0.0,WUHU216DAVISVP2,2013-01-18 04:38:00,
2013-01-17 23:43:00,38.1,29.3,30.03,NNW,334,3.5,8.0,70,0.00,,,0.00,0.0,WUHU216DAVISVP2,2013-01-18 04:43:00,
2013-01-17 23:48:00,38.0,29.5,30.03,North,354,2.3,8.0,71,0.00,,,0.00,0.0,WUHU216DAVISVP2,2013-01-18 04:48:00,
2013-01-17 23:53:00,38.0,29.5,30.04,NNW,346,1.8,8.0,71,0.00,,,0.00,0.0,WUHU216DAVISVP2,2013-01-18 04:53:00,
2013-01-17 23:58:00,37.9,29.4,30.05,NNW,348,1.1,8.0,71,0.00,,,0.00,0.0,WUHU216DAVISVP2,2013-01-18 04:58:00,